Location: Unspecified
(0.0000°N, 0.0000°E)
Time: 16:41:38
(UTC+00:00)

Amateur Radio Satellites - All Passes

Search period start: 30 October 2014 16:11
Search period end: 31 October 2014 16:11
Location: Unspecified, 0.0000°N, 0.0000°E

Satellite Date Start Highest point End Downlink Frequencies (MHz)
Time Altitude Azimuth
JAS-2 30 Oct 16:18:18 16:22:24 21° 75° (ENE) 16:26:45 435.800 - 435.900 CW/SSB, 435.910 FM
AO-7 30 Oct 16:53:07 17:00:28 36° 254° (WSW) 17:07:49 29.400 - 29.500 MHz
Uosat F 30 Oct 17:03:35 17:07:04 19° 257° (WSW) 17:10:33 435.120 FM
Hamsat 30 Oct 17:24:31 17:28:47 81° 79° (ENE) 17:32:59 145.90 MHz
RS-15 30 Oct 17:37:58 17:45:25 19° 114° (ESE) 17:52:35 29.354 - 29.394 USB, Beacon 29.352 USB
OPAL 30 Oct 17:49:52 17:53:32 21° 284° (WNW) 17:57:15 ?
JAS-2 30 Oct 18:02:41 18:07:11 27° 259° (W) 18:12:03 435.800 - 435.900 CW/SSB, 435.910 FM
STRAND 1 30 Oct 18:04:42 18:09:28 40° 103° (ESE) 18:14:14 ?
SO-67 30 Oct 19:03:50 19:07:02 37° 259° (W) 19:10:13 435.3500 MHz FM
ISS 30 Oct 19:05:58 19:09:17 77° 55° (NE) 19:12:37 145.800 FM
RS-15 30 Oct 19:46:17 19:57:34 67° 290° (WNW) 20:08:26 29.354 - 29.394 USB, Beacon 29.352 USB
STRAND 1 30 Oct 19:46:42 19:48:22 12° 283° (WNW) 19:50:02 ?
MaSat-1 30 Oct 20:04:23 20:08:33 43° 107° (ESE) 20:12:31 437.345 MHz
HO-68 30 Oct 20:27:44 20:34:50 68° 76° (ENE) 20:41:55 435.675 MHz FM
KITSAT 1 30 Oct 20:45:20 20:53:15 62° 70° (ENE) 21:01:10 435.175 FM
UKube-1 30 Oct 21:02:01 21:06:09 44° 78° (ENE) 21:10:17 145.840 MHz, 145.915 MHz
ZACube-1 30 Oct 21:09:51 21:13:05 19° 78° (ENE) 21:16:16 437.345 MHz
SO-50 30 Oct 21:15:57 21:20:50 83° 248° (WSW) 21:25:40 436.795 FM
Oscar 11 30 Oct 21:37:46 21:42:02 57° 258° (WSW) 21:46:16 145.825 FM, Beacon 2401.500 USB
PANSAT 30 Oct 21:47:45 21:49:57 15° 152° (SSE) 21:52:08 not established
FUNcube-1 30 Oct 21:51:32 21:56:09 73° 79° (ENE) 22:00:42 145.950 - 145.970 MHz USB
UOSAT-12 30 Oct 22:06:40 22:09:56 19° 67° (ENE) 22:13:10 437.025 FM, 437.400 FM
HO-68 30 Oct 22:19:52 22:22:09 12° 254° (WSW) 22:24:26 435.675 MHz FM
KITSAT 1 30 Oct 22:43:56 22:48:23 16° 249° (WSW) 22:52:51 435.175 FM
ZACube-1 30 Oct 22:45:45 22:49:11 21° 258° (WSW) 22:52:36 437.345 MHz
PANSAT 30 Oct 23:26:14 23:30:06 85° 330° (NNW) 23:33:58 not established
Sapphire 30 Oct 23:29:14 23:32:14 15° 110° (ESE) 23:35:13 437.095 MHz 1200 baud AX-25 AFSK
UOSAT-12 30 Oct 23:46:31 23:49:49 20° 248° (WSW) 23:53:04 437.025 FM, 437.400 FM
PCSat 30 Oct 23:49:21 23:54:01 30° 109° (ESE) 23:58:39 145.825 MHz
JAS-1B 31 Oct 00:31:28 00:39:23 40° 106° (ESE) 00:48:09 435.800 - 435.900 CW/SSB
Oscar 19 31 Oct 00:34:48 00:39:10 29° 103° (ESE) 00:43:33 437.125 CW, 437.150 USB
PANSAT 31 Oct 01:08:25 01:10:16 13° 332° (NNW) 01:12:07 not established
AO-27 31 Oct 01:09:21 01:13:26 24° 103° (ESE) 01:17:32 436.795 MHz FM
Sapphire 31 Oct 01:10:32 01:15:23 35° 289° (WNW) 01:20:15 437.095 MHz 1200 baud AX-25 AFSK
Oscar 16 31 Oct 01:20:55 01:26:01 73° 282° (WNW) 01:31:09 437.025 USB, Beacon 2401.1428
Gurwin Techsat 1B 31 Oct 01:21:33 01:24:14 14° 103° (ESE) 01:26:55 435.225 FM
TMSAT-1 31 Oct 01:29:41 01:31:10 11° 103° (ESE) 01:32:39 436.925 FM
PCSat 31 Oct 01:33:36 01:37:09 18° 290° (WNW) 01:40:42 145.825 MHz
Uribyol 2 31 Oct 01:52:23 01:57:33 87° 103° (ESE) 02:02:43 436.500 FM
ITAMSAT 1 31 Oct 02:00:08 02:05:19 82° 283° (WNW) 02:10:30 435.822 SSB
AO-Echo 31 Oct 02:02:48 02:07:52 52° 282° (WNW) 02:12:49 ?
Oscar 19 31 Oct 02:15:00 02:18:14 17° 283° (WNW) 02:21:30 437.125 CW, 437.150 USB
JAS-1B 31 Oct 02:22:08 02:29:28 33° 282° (WNW) 02:37:42 435.800 - 435.900 CW/SSB
AO-27 31 Oct 02:48:50 02:52:40 21° 283° (WNW) 02:56:31 436.795 MHz FM
Gurwin Techsat 1B 31 Oct 02:59:05 03:03:54 36° 282° (WNW) 03:08:45 435.225 FM
TMSAT-1 31 Oct 03:05:47 03:10:47 44° 282° (WNW) 03:15:48 436.925 FM
AO-7 31 Oct 03:26:21 03:34:19 50° 106° (ESE) 03:42:18 29.400 - 29.500 MHz
JAS-2 31 Oct 03:52:42 03:56:33 15° 101° (E) 04:00:12 435.800 - 435.900 CW/SSB, 435.910 FM
Uosat F 31 Oct 03:53:21 03:58:16 58° 103° (ESE) 04:03:12 435.120 FM
Saudisat 1A 31 Oct 04:05:53 04:10:05 48° 292° (WNW) 04:14:17 436.775 MHz
OPAL 31 Oct 04:41:46 04:46:52 56° 76° (ENE) 04:51:53 ?
RS-15 31 Oct 05:20:17 05:26:28 16° 68° (ENE) 05:32:43 29.354 - 29.394 USB, Beacon 29.352 USB
AO-7 31 Oct 05:20:47 05:26:42 22° 287° (WNW) 05:32:40 29.400 - 29.500 MHz
Hamsat 31 Oct 05:31:26 05:35:41 80° 281° (WNW) 05:40:01 145.90 MHz
JAS-2 31 Oct 05:34:00 05:41:25 59° 284° (WNW) 05:48:11 435.800 - 435.900 CW/SSB, 435.910 FM
STRAND 1 31 Oct 06:37:06 06:42:13 79° 257° (WSW) 06:47:20 ?
ISS 31 Oct 06:41:36 06:44:47 45° 125° (SE) 06:47:58 145.800 FM
SO-67 31 Oct 06:47:35 06:51:00 77° 281° (W) 06:54:27 435.3500 MHz FM
RS-15 31 Oct 07:26:52 07:38:32 81° 250° (WSW) 07:50:44 29.354 - 29.394 USB, Beacon 29.352 USB
MaSat-1 31 Oct 07:46:17 07:47:27 13° 74° (ENE) 07:48:38 437.345 MHz
HO-68 31 Oct 08:19:24 08:26:24 57° 105° (ESE) 08:33:23 435.675 MHz FM
KITSAT 1 31 Oct 08:53:14 09:01:19 79° 110° (ESE) 09:09:23 435.175 FM
UKube-1 31 Oct 09:11:28 09:15:44 62° 102° (ESE) 09:20:02 145.840 MHz, 145.915 MHz
AO-40 31 Oct 09:13:42 09:22:25 67° 6° (N) 09:28:02 Beacon 2401.320
ZACube-1 31 Oct 09:20:20 09:23:37 23° 102° (ESE) 09:26:56 437.345 MHz
SO-50 31 Oct 09:29:50 09:33:58 41° 292° (WNW) 09:38:08 436.795 FM
PANSAT 31 Oct 09:34:56 09:37:09 15° 28° (NNE) 09:39:21 not established
Oscar 11 31 Oct 09:47:00 09:51:03 41° 282° (WNW) 09:55:08 145.825 FM, Beacon 2401.500 USB
RS-15 31 Oct 09:50:22 09:51:13 10° 245° (WSW) 09:52:04 29.354 - 29.394 USB, Beacon 29.352 USB
FUNcube-1 31 Oct 10:02:25 10:06:33 80° 282° (WNW) 10:10:44 145.950 - 145.970 MHz USB
HO-68 31 Oct 10:10:03 10:13:44 15° 285° (WNW) 10:17:26 435.675 MHz FM
UOSAT-12 31 Oct 10:15:54 10:19:54 32° 112° (ESE) 10:23:58 437.025 FM, 437.400 FM
KITSAT 1 31 Oct 10:54:32 10:56:30 11° 292° (WNW) 10:58:28 435.175 FM
ZACube-1 31 Oct 10:57:58 10:59:46 13° 282° (WNW) 11:01:35 437.345 MHz
PANSAT 31 Oct 11:13:27 11:17:16 81° 210° (SSW) 11:21:06 not established
UOSAT-12 31 Oct 11:58:16 11:59:49 12° 293° (WNW) 12:01:23 437.025 FM, 437.400 FM
Sapphire 31 Oct 12:03:26 12:08:36 47° 71° (ENE) 12:13:46 437.095 MHz 1200 baud AX-25 AFSK
Oscar 16 31 Oct 12:17:32 12:20:57 18° 77° (ENE) 12:24:20 437.025 USB, Beacon 2401.1428
PCSat 31 Oct 12:24:53 12:30:17 86° 251° (WSW) 12:35:41 145.825 MHz
Oscar 10/S400 31 Oct 12:31:38 12:55:29 50° 336° (NNW) 13:16:03 145.825 - 145.975 CW/USB, Beacon 145.810 USB
JAS-1B 31 Oct 12:45:14 12:51:15 37° 79° (ENE) 12:56:35 435.800 - 435.900 CW/SSB
Uribyol 2 31 Oct 12:50:37 12:53:20 14° 77° (ENE) 12:56:03 436.500 FM
AO-Echo 31 Oct 12:54:47 12:58:16 20° 77° (ENE) 13:01:47 ?
PANSAT 31 Oct 12:55:46 12:57:27 12° 208° (SSW) 12:59:08 not established
ITAMSAT 1 31 Oct 12:58:01 13:01:13 17° 77° (ENE) 13:04:25 435.822 SSB
Oscar 19 31 Oct 13:07:55 13:13:05 76° 78° (ENE) 13:18:13 437.125 CW, 437.150 USB
AO-27 31 Oct 13:43:33 13:48:42 64° 77° (ENE) 13:53:51 436.795 MHz FM
Sapphire 31 Oct 13:50:29 13:51:47 11° 250° (WSW) 13:53:05 437.095 MHz 1200 baud AX-25 AFSK
Oscar 16 31 Oct 13:55:39 14:00:01 28° 257° (WSW) 14:04:22 437.025 USB, Beacon 2401.1428
Gurwin Techsat 1B 31 Oct 13:57:51 14:02:49 41° 78° (ENE) 14:07:46 435.225 FM
TMSAT-1 31 Oct 14:04:37 14:09:21 33° 78° (ENE) 14:14:03 436.925 FM
Uribyol 2 31 Oct 14:27:49 14:32:31 35° 257° (WSW) 14:37:13 436.500 FM
AO-Echo 31 Oct 14:33:11 14:36:46 21° 258° (WSW) 14:40:25 ?
Saudisat 1A 31 Oct 14:35:20 14:36:45 11° 67° (ENE) 14:38:09 436.775 MHz
ITAMSAT 1 31 Oct 14:35:55 14:40:26 30° 257° (WSW) 14:44:56 435.822 SSB
JAS-1B 31 Oct 14:37:26 14:41:26 17° 253° (WSW) 14:45:10 435.800 - 435.900 CW/SSB
Gurwin Techsat 1B 31 Oct 15:40:23 15:42:29 12° 257° (WSW) 15:44:35 435.225 FM
TMSAT-1 31 Oct 15:45:56 15:48:58 16° 257° (WSW) 15:52:01 436.925 FM
AO-7 31 Oct 15:52:30 16:00:48 79° 74° (ENE) 16:09:04 29.400 - 29.500 MHz
